Location: Hac?musa Deresi
(39.1694°N, 32.2508°E)
Time: 10:06:34
(UTC+00:00)

Ariane Rocket - Pass Details

Date: 22 April 2026
Orbit: 755 x 763 km, 98.4° (Epoch: 12 May)

Event Time Altitude Azimuth Distance (km) Brightness Sun altitude
Exits shadow 19:17:11 54° 35° (NE) 920 3.4 -27.4°
Drops below altitude 10° 19:21:24 10° 355° (N) 2,290 6.1 -28.0°
Sets 19:23:43 0° 351° (N) 3,221 7.1 -28.3°
